Location: La Brionne
(46.1728°N, 1.7849°E)
Time: 17:30:06
(UTC+00:00)

Cosmos 1544 Rocket - Pass Details

Date: 23 October 2021
Orbit: 603 x 632 km, 82.5° (Epoch: 27 November)

Event Time Altitude Azimuth Distance (km) Brightness Sun altitude
Rises 18:40:30 0° 205° (SSW) 2,912 7.3 -19.3°
Reaches altitude 10° 18:42:49 10° 212° (SSW) 2,009 6.5 -19.7°
Maximum altitude 18:47:04 43° 284° (WNW) 890 4.8 -20.5°
Drops below altitude 10° 18:51:21 10° 356° (N) 2,021 6.3 -21.2°
Sets 18:53:42 0° 4° (N) 2,930 7.1 -21.6°
